Latest Weather Observations for Mount William

IDV60801

Issued at 10:35 pm EDT Friday 24 October 2014 (issued every 30 minutes, with the page automatically refreshed every 10 minutes)

About weather observations | Map of weather stations | Latest weather observations for VIC | Other Formats
Station Details ID: 079103 Name: MOUNT WILLIAM Lat: -37.30 Lon: 142.60 Height: 1150.0 m
Data from the previous 72 hours. | See also: Recent months at Mount William
Date/Time
EDT
Temp
°C
App
Temp
°C
Dew
Point
Rel
Hum
%
Delta-T
°C
Wind Press
QNH
hPa
Press
MSL
hPa
Rain
since 9 am
mm
Dir
 
Spd
km/h
Gust
km/h
Spd
kts
Gust
kts
24/10:30pm 12.7 10.7 7.2 69 2.8 SW 7 15 4 8 - - 0.0
24/10:00pm 13.1 10.3 7.1 67 3.1 SSW 11 17 6 9 - - 0.0
24/09:30pm 14.0 10.7 6.6 61 3.8 SSW 13 24 7 13 - - 0.0
24/09:00pm 14.4 11.4 6.0 57 4.3 SSW 11 19 6 10 - - 0.0
24/08:30pm 15.2 13.1 6.0 54 4.7 NW 6 9 3 5 - - 0.0
24/08:00pm 15.6 13.6 6.1 53 4.9 S 6 13 3 7 - - 0.0
24/07:30pm 16.9 14.3 6.1 49 5.6 SSW 9 22 5 12 - - 0.0
24/07:00pm 18.1 15.8 5.7 44 6.4 S 7 20 4 11 - - 0.0
24/06:30pm 19.0 16.3 5.8 42 6.9 SSW 9 15 5 8 - - 0.0
24/06:00pm 19.9 16.7 5.2 38 7.6 SSW 11 19 6 10 - - 0.0
24/05:30pm 20.0 15.9 4.1 35 8.1 SSW 15 24 8 13 - - 0.0
24/05:00pm 18.4 12.6 2.3 34 7.8 SSW 22 35 12 19 - - 0.0
24/04:30pm 21.1 17.4 4.2 33 8.7 SW 13 22 7 12 - - 0.0
24/04:00pm 20.8 14.7 2.6 30 9.1 SSW 24 37 13 20 - - 0.0
24/03:30pm 20.8 15.8 4.4 34 8.4 SW 20 30 11 16 - - 0.0
24/03:00pm 20.6 16.0 5.8 38 7.8 SSW 19 32 10 17 - - 0.0
24/02:30pm 20.4 15.8 5.6 38 7.8 SSW 19 28 10 15 - - 0.0
24/02:00pm 19.4 13.6 4.4 37 7.7 SSW 24 35 13 19 - - 0.0
24/01:30pm 17.9 10.9 5.8 45 6.3 SSW 32 44 17 24 - - 0.0
24/01:00pm 16.4 8.5 7.9 57 4.6 SSW 39 52 21 28 - - 0.0
24/12:30pm 16.0 8.1 4.4 46 5.8 SSW 35 44 19 24 - - 0.0
24/12:00pm 16.0 8.3 2.4 40 6.5 SSW 32 44 17 24 - - 0.0
24/11:30am 15.0 8.0 6.0 55 4.6 SSW 32 39 17 21 - - 0.0
24/11:00am 15.2 8.5 3.7 46 5.6 SW 28 41 15 22 - - 0.0
24/10:30am 14.7 7.7 4.1 49 5.2 SW 30 43 16 23 - - 0.0
24/10:00am 14.4 8.8 5.2 54 4.6 SW 24 33 13 18 - - 0.0
24/09:30am 14.3 8.9 6.4 59 4.1 SSW 24 35 13 19 - - 0.0
24/09:00am 14.6 10.0 5.4 54 4.6 SW 19 28 10 15 - - 0.0
24/08:30am 14.5 11.7 8.5 67 3.2 SW 13 20 7 11 - - 0.0
24/08:00am 14.9 10.5 8.8 67 3.3 SW 22 32 12 17 - - 0.0
24/07:30am 14.9 9.9 7.9 63 3.7 SW 24 33 13 18 - - 0.0
24/07:00am 14.5 10.2 9.3 71 2.8 SW 22 30 12 16 - - 0.0
24/06:30am 14.5 10.3 9.7 73 2.6 SW 22 26 12 14 - - 0.0
24/06:00am 15.0 10.7 9.4 69 3.1 WSW 22 28 12 15 - - 0.0
24/05:30am 14.7 9.7 9.7 72 2.7 SW 26 30 14 16 - - 0.0
24/05:00am 14.6 10.4 9.8 73 2.6 SW 22 30 12 16 - - 0.0
24/04:30am 14.8 10.9 9.4 70 2.9 SW 20 24 11 13 - - 0.0
24/04:00am 16.4 12.4 9.1 62 4.0 WSW 20 26 11 14 - - 0.0
24/03:30am 16.4 12.5 9.3 63 3.9 WSW 20 26 11 14 - - 0.0
24/03:00am 16.8 13.2 10.0 64 3.8 W 19 22 10 12 - - 0.0
24/02:30am 17.1 14.3 10.0 63 4.0 WNW 15 20 8 11 - - 0.0
24/02:00am 17.2 14.8 9.9 62 4.1 NNW 13 19 7 10 - - 0.0
24/01:30am 17.2 14.4 9.9 62 4.1 N 15 20 8 11 - - 0.0
24/01:00am 17.2 15.6 10.1 63 4.0 NNW 9 13 5 7 - - 0.0
24/12:30am 17.4 15.3 9.8 61 4.2 NW 11 15 6 8 - - 0.0
24/12:00am 17.1 15.4 10.0 63 4.0 N 9 11 5 6 - - 0.0
 
Date/Time
EDT
Temp
°C
App
Temp
°C
Dew
Point
Rel
Hum
%
Delta-T
°C
Wind Press
QNH
hPa
Press
MSL
hPa
Rain
since 9 am
mm
Dir
 
Spd
km/h
Gust
km/h
Spd
kts
Gust
kts
23/11:30pm 16.5 15.0 9.2 62 4.0 N 7 9 4 5 - - 0.0
23/11:00pm 17.9 16.1 9.3 57 4.8 NNW 9 11 5 6 - - 0.0
23/10:30pm 18.1 16.0 9.7 58 4.7 N 11 13 6 7 - - 0.0
23/10:00pm 16.1 14.8 10.0 67 3.4 NNE 7 9 4 5 - - 0.0
23/09:30pm 16.1 14.4 9.8 66 3.5 NE 9 11 5 6 - - 0.0
23/09:00pm 16.4 14.6 9.3 63 3.9 NE 9 11 5 6 - - 0.0
23/08:30pm 16.4 14.5 8.9 61 4.1 NE 9 11 5 6 - - 0.0
23/08:00pm 16.9 14.4 6.4 50 5.5 ENE 9 9 5 5 - - 0.0
23/07:30pm 18.7 16.7 7.2 47 6.2 ENE 7 9 4 5 - - 0.0
23/07:00pm 19.9 18.2 7.6 45 6.7 NE 6 7 3 4 - - 0.0
23/06:30pm 21.5 19.8 8.4 43 7.3 NNE 7 9 4 5 - - 0.0
23/06:00pm 20.2 18.5 8.5 47 6.5 ENE 7 13 4 7 - - 0.0
23/05:30pm 20.7 18.2 8.4 45 6.8 E 11 17 6 9 - - 0.0
23/05:00pm 20.9 18.4 8.2 44 7.0 E 11 17 6 9 - - 0.0
23/04:30pm 22.1 19.3 8.6 42 7.6 E 13 19 7 10 - - 0.0
23/04:00pm 22.3 19.5 8.4 41 7.8 E 13 17 7 9 - - 0.0
23/03:30pm 22.2 19.7 8.0 40 7.9 E 11 17 6 9 - - 0.0
23/03:00pm 23.1 21.1 10.2 44 7.5 E 11 17 6 9 - - 0.0
23/02:30pm 22.7 21.1 10.2 45 7.2 E 9 15 5 8 - - 0.0
23/02:00pm 22.1 20.3 9.6 45 7.1 E 9 13 5 7 - - 0.0
23/01:30pm 21.3 19.1 9.2 46 6.8 ENE 11 15 6 8 - - 0.0
23/01:00pm 21.7 19.6 9.6 46 6.9 E 11 19 6 10 - - 0.0
23/12:30pm 18.9 16.2 7.4 47 6.2 ESE 11 19 6 10 - - 0.0
23/12:00pm 18.7 15.8 8.1 50 5.8 SE 13 22 7 12 - - 0.0
23/11:30am 16.6 12.7 7.0 53 5.1 SSE 17 26 9 14 - - 0.0
23/11:00am 16.8 12.2 5.4 47 5.8 SSE 19 26 10 14 - - 0.0
23/10:30am 15.8 10.9 5.1 49 5.4 SSE 20 26 11 14 - - 0.0
23/10:00am 15.8 10.9 5.1 49 5.4 SSE 20 30 11 16 - - 0.0
23/09:30am 14.8 9.1 5.1 52 4.9 S 24 35 13 19 - - 0.0
23/09:00am 14.8 9.1 4.8 51 5.0 S 24 33 13 18 - - 0.2
23/08:30am 14.3 8.9 4.6 52 4.8 S 22 30 12 16 - - 0.2
23/08:00am 14.8 12.0 5.1 52 4.9 SSE 9 15 5 8 - - 0.2
23/07:30am 14.3 11.8 4.6 52 4.8 S 7 22 4 12 - - 0.2
23/07:00am 15.9 13.7 6.3 53 5.0 N 7 9 4 5 - - 0.2
23/06:30am 14.7 12.7 6.3 57 4.3 NNE 6 7 3 4 - - 0.2
23/06:00am 14.9 12.9 6.2 56 4.5 NE 6 9 3 5 - - 0.2
23/05:30am 14.7 12.1 6.0 56 4.4 NE 9 13 5 7 - - 0.2
23/05:00am 14.6 12.3 5.9 56 4.4 NE 7 11 4 6 - - 0.2
23/04:30am 14.8 12.2 6.1 56 4.5 NNE 9 9 5 5 - - 0.2
23/04:00am 15.3 13.6 6.1 54 4.7 NNE 4 6 2 3 - - 0.2
23/03:30am 15.8 13.2 6.0 52 5.0 NNE 9 13 5 7 - - 0.2
23/03:00am 15.2 13.1 6.0 54 4.7 NNE 6 9 3 5 - - 0.2
23/02:30am 15.8 13.7 5.7 51 5.2 ENE 6 7 3 4 - - 0.2
23/02:00am 16.2 14.8 5.5 49 5.5 SE 2 7 1 4 - - 0.2
23/01:30am 15.7 13.4 5.9 52 5.0 SE 7 13 4 7 - - 0.2
23/01:00am 16.2 13.8 6.9 54 4.9 SSE 9 15 5 8 - - 0.2
23/12:30am 16.4 14.2 5.4 48 5.6 ENE 6 11 3 6 - - 0.2
23/12:00am 16.4 14.0 5.4 48 5.6 E 7 11 4 6 - - 0.2
 
Date/Time
EDT
Temp
°C
App
Temp
°C
Dew
Point
Rel
Hum
%
Delta-T
°C
Wind Press
QNH
hPa
Press
MSL
hPa
Rain
since 9 am
mm
Dir
 
Spd
km/h
Gust
km/h
Spd
kts
Gust
kts
22/11:30pm 15.9 12.7 6.9 55 4.7 SE 13 15 7 8 - - 0.2
22/11:00pm 16.2 12.6 6.9 54 4.9 SE 15 17 8 9 - - 0.2
22/10:30pm 16.2 11.8 4.6 46 5.8 SE 17 20 9 11 - - 0.2
22/10:00pm 15.9 11.2 3.4 43 6.1 SSE 17 20 9 11 - - 0.2
22/09:30pm 15.8 11.6 3.9 45 5.9 SE 15 17 8 9 - - 0.2
22/09:00pm 15.1 10.3 2.6 43 6.0 SE 17 20 9 11 - - 0.2
22/08:30pm 15.6 12.7 9.5 67 3.4 SE 15 19 8 10 - - 0.2
22/08:00pm 16.0 13.5 9.7 66 3.5 SE 13 19 7 10 - - 0.2
22/07:30pm 16.6 13.6 7.8 56 4.7 SE 13 17 7 9 - - 0.2
22/07:00pm 17.3 13.2 7.9 54 5.1 SSE 19 28 10 15 - - 0.2
22/06:30pm 20.6 15.5 5.8 38 7.8 SSW 22 32 12 17 - - 0.2
22/06:02pm 15.9 9.6 9.6 66 3.5 WSW 33 52 18 28 - - 0.0
22/06:00pm 15.6 8.9 9.7 68 3.3 WSW 35 52 19 28 - - 0.0
22/05:43pm 17.6 11.9 8.5 55 5.0 WSW 28 61 15 33 - - 0.0
22/05:30pm 19.9 14.2 6.6 42 7.1 WSW 26 33 14 18 - - 0.0
22/05:00pm 22.8 20.0 7.0 36 8.6 N 11 22 6 12 - - 0.0
22/04:30pm 25.2 22.7 8.2 34 9.6 NNE 11 17 6 9 - - 0.0
22/04:00pm 24.3 21.5 7.0 33 9.5 N 11 20 6 11 - - 0.0
22/03:30pm 24.9 22.0 8.0 34 9.5 N 13 28 7 15 - - 0.0
22/03:00pm 24.4 19.9 6.2 31 9.9 NW 19 30 10 16 - - 0.0
22/02:30pm 24.2 19.2 6.5 32 9.7 NW 22 33 12 18 - - 0.0
22/02:00pm 24.4 19.9 7.1 33 9.5 NNW 20 35 11 19 - - 0.0
22/01:30pm 24.4 19.8 6.6 32 9.7 W 20 30 11 16 - - 0.0
22/01:00pm 24.5 20.6 7.2 33 9.6 WNW 17 32 9 17 - - 0.0
22/12:30pm 23.6 19.5 6.0 32 9.5 NW 17 28 9 15 - - 0.0
22/12:00pm 24.3 19.8 6.1 31 9.9 WNW 19 26 10 14 - - 0.0
22/11:30am 22.2 17.1 4.3 31 9.3 WNW 20 30 11 16 - - 0.0
22/11:00am 21.4 15.1 1.7 27 9.7 NW 24 33 13 18 - - 0.0
22/10:30am 20.6 14.3 1.5 28 9.3 WNW 24 32 13 17 - - 0.0
22/10:00am 20.1 14.3 2.5 31 8.7 WNW 22 33 12 18 - - 0.0
22/09:30am 20.2 14.1 2.5 31 8.8 NW 24 33 13 18 - - 0.0
22/09:00am 19.0 13.6 2.4 33 8.1 WNW 20 30 11 16 - - 0.0
22/08:30am 18.6 12.7 1.6 32 8.2 NNW 22 32 12 17 - - 0.0
22/08:00am 18.0 12.4 1.5 33 7.9 N 20 33 11 18 - - 0.0
22/07:38am 17.8 10.9 2.5 36 7.4 N 28 46 15 25 - - 0.0
22/07:30am 17.7 10.4 2.5 36 7.4 N 30 44 16 24 - - 0.0
22/07:00am 16.9 10.6 3.9 42 6.5 NNW 26 46 14 25 - - 0.0
22/06:33am 16.9 9.4 4.6 44 6.2 N 33 54 18 29 - - 0.0
22/06:30am 16.5 8.7 4.9 46 5.9 N 35 54 19 29 - - 0.0
22/06:22am 16.6 9.3 5.3 47 5.8 N 33 54 18 29 - - 0.0
22/06:00am 16.3 8.6 5.3 48 5.6 N 35 48 19 26 - - 0.0
22/05:30am 15.8 8.6 5.7 51 5.2 N 33 44 18 24 - - 0.0
22/05:00am 15.7 8.6 5.6 51 5.1 N 32 41 17 22 - - 0.0
22/04:30am 15.3 8.1 6.1 54 4.7 N 33 44 18 24 - - 0.0
22/04:14am 15.2 8.1 6.5 56 4.5 N 33 52 18 28 - - 0.0
22/04:00am 15.3 7.4 6.3 55 4.6 N 37 48 20 26 - - 0.0
22/03:30am 15.9 8.2 5.2 49 5.4 N 35 48 19 26 - - 0.0
22/03:00am 16.3 9.0 2.7 40 6.6 N 30 41 16 22 - - 0.0
22/02:30am 16.3 10.2 3.0 41 6.5 N 24 33 13 18 - - 0.0
22/02:00am 16.8 12.2 3.5 41 6.5 NNW 17 26 9 14 - - 0.0
22/01:30am 16.4 11.6 4.8 46 5.8 N 19 22 10 12 - - 0.0
22/01:00am 16.2 11.3 5.2 48 5.6 N 20 26 11 14 - - 0.0
22/12:30am 16.1 10.2 6.0 51 5.2 N 26 33 14 18 - - 0.0
22/12:00am 15.9 9.9 5.2 49 5.4 N 26 32 14 17 - - 0.0
 
Date/Time
EDT
Temp
°C
App
Temp
°C
Dew
Point
Rel
Hum
%
Delta-T
°C
Wind Press
QNH
hPa
Press
MSL
hPa
Rain
since 9 am
mm
Dir
 
Spd
km/h
Gust
km/h
Spd
kts
Gust
kts
21/11:30pm 15.9 9.9 5.2 49 5.4 N 26 32 14 17 - - 0.0
21/11:00pm 16.2 9.6 4.3 45 5.9 N 28 39 15 21 - - 0.0

Other Formats:

Comma delimited format used in spreadsheet applications
http://www.bom.gov.au/fwo/IDV60801/IDV60801.94833.axf

JavaScript Object Notation format (JSON) in row-major order
http://www.bom.gov.au/fwo/IDV60801/IDV60801.94833.json